Tracking 17925 objects as of 19-February-2017
HD Live streaming from Space Station
objects crossing your sky now

COSMOS 1023

Track COSMOS 1023 now!
10-day predictions
COSMOS 1023 is classified as:


NORAD ID: 10961
Int'l Code: 1978-063A
Perigee: 766.0 km
Apogee: 789.0 km
Inclination: 74.1 °
Period: 100.2 minutes
Semi major axis: 7148 km
RCS: 3.0969 m2 (large)
Launch date: June 21, 1978
Source: Commonwealth of Independent States (former USSR) (CIS)
Launch site: PLESETSK MISSILE AND SPACE COMPLEX (PKMTR)
Your satellite tracking list
Your tracking list is empty





NASA's NSSDC Master Catalog

Two Line Element Set (TLE):
1 10961U 78063A   17049.89213899 +.00000023 +00000-0 +16814-4 0  9990
2 10961 074.0752 211.9969 0016052 160.5984 199.5784 14.36419245023870
Source of the keplerian elements: AFSPC